Date String (YYYY-MM-DD hh:mm:ss) UTC,Instrument flags,Ambient pressure (hPa),Sample flow (lpm),Bypass flow (lpm),Sample temperature (°C),Ambient temperature (°C),ASC tube jacket temperature (°C),LED temperature (°C),Box temperature (°C),Sample RH (%),Span deviation,Mass concentration (μg/m³),Mass concentration (μg/m³),Mass concentration (μg/m³)
DateTimeUTC,F1_M11,P_M11,Q1_M11,Q2_M11,T1_M11,T2_M11,T3_M11,T4_M11,T5_M11,U1_M11,ZSPAN_M11,X0_M11,X2_M11,X1_M11
2021-08-20 07:00:00,,0824.1,4.98,0.00,29.7,28.5,00.0,38.9,31.5,28.6,0000.0,0004.37,0003.06,0002.56
2021-08-20 07:01:00,,0824.1,5.01,0.00,29.8,28.6,00.0,38.9,31.6,28.5,0000.0,0004.28,0003.02,0002.57
2021-08-20 07:02:00,,0824.1,5.00,0.00,29.8,28.7,00.0,38.9,31.6,29.2,0000.0,0004.23,0003.04,0002.59
2021-08-20 07:03:00,,0824.1,5.01,0.00,29.8,28.8,00.0,38.9,31.6,29.7,0000.0,0004.52,0003.07,0002.65
2021-08-20 07:04:00,,0824.1,4.99,0.00,29.8,28.9,00.0,38.9,31.7,29.2,0000.0,0004.81,0003.11,0002.71
2021-08-20 07:05:00,,0824.1,5.01,0.00,29.9,28.9,00.0,38.9,31.7,29.2,0000.0,0004.88,0003.16,0002.79
2021-08-20 07:06:00,,0824.0,5.00,0.00,29.9,29.0,00.0,38.9,31.7,29.4,0000.0,0005.11,0003.23,0002.88
2021-08-20 07:07:00,,0824.1,4.99,0.00,29.9,29.0,00.0,38.9,31.7,29.9,0000.0,0006.89,0003.33,0002.97
2021-08-20 07:08:00,,0824.1,5.01,0.00,30.0,29.1,00.0,39.0,31.8,30.3,0000.7,0007.68,0003.39,0003.07
2021-08-20 07:09:00,,0824.0,4.99,0.00,30.0,29.1,00.0,39.0,31.9,30.8,0000.1,0007.71,0003.45,0003.13
2021-08-20 07:10:00,,0824.1,5.00,0.00,30.0,29.2,00.0,39.0,31.9,30.6,0000.8,0007.82,0003.52,0003.18
2021-08-20 07:11:00,,0824.0,4.99,0.00,30.0,29.2,00.0,39.0,31.9,30.5,0001.6,0007.96,0003.60,0003.24
2021-08-20 07:12:00,,0824.1,5.00,0.00,30.1,29.2,00.0,39.1,31.9,30.4,0001.6,0008.23,0003.71,0003.31
2021-08-20 07:13:00,,0824.0,5.00,0.00,30.1,29.3,00.0,39.1,31.9,30.5,0001.5,0008.38,0003.78,0003.36
2021-08-20 07:14:00,,0824.1,5.00,0.00,30.1,28.2,00.0,39.1,31.6,30.6,0001.1,0008.47,0003.88,0003.40
2021-08-20 07:15:00,,0824.1,5.00,0.00,29.9,26.6,00.0,39.0,31.2,30.5,0000.4,0008.80,0003.95,0003.43
2021-08-20 07:16:00,,0824.1,5.00,0.00,29.8,26.3,00.0,39.0,31.2,30.7,0001.6,0009.09,0004.02,0003.47
2021-08-20 07:17:00,,0824.1,5.01,0.00,29.7,26.7,00.0,39.0,31.2,31.1,0001.8,0009.35,0004.09,0003.51
2021-08-20 07:18:00,,0824.1,5.00,0.00,29.6,27.1,00.0,38.9,31.2,31.4,0001.3,0008.73,0004.14,0003.55
2021-08-20 07:19:00,,0824.1,4.99,0.00,29.6,27.5,00.0,38.9,31.3,31.6,0001.0,0008.47,0004.19,0003.58
2021-08-20 07:20:00,,0824.1,5.00,0.00,29.7,27.8,00.0,38.9,31.3,31.6,0001.5,0009.14,0004.26,0003.62
2021-08-20 07:21:00,,0824.1,5.00,0.00,29.7,28.0,00.0,38.9,31.4,31.4,0001.6,0009.55,0004.32,0003.66
2021-08-20 07:22:00,,0824.1,5.01,0.00,29.7,28.2,00.0,38.9,31.5,31.2,0001.6,0010.14,0004.35,0003.68
2021-08-20 07:23:00,,0824.1,5.00,0.00,29.7,28.4,00.0,38.9,31.5,31.8,0001.8,0010.02,0004.34,0003.70
2021-08-20 07:24:00,,0824.0,5.01,0.00,29.8,28.5,00.0,38.9,31.5,32.1,0001.8,0010.00,0004.37,0003.73
2021-08-20 07:25:00,,0824.1,4.99,0.00,29.8,28.6,00.0,38.9,31.6,32.0,0001.7,0009.88,0004.39,0003.77
2021-08-20 07:26:00,,0824.1,5.01,0.00,29.8,28.7,00.0,38.9,31.6,32.0,0001.6,0010.48,0004.42,0003.80
2021-08-20 07:27:00,,0824.1,4.99,0.00,29.8,28.8,00.0,38.9,31.6,32.2,0001.2,0011.02,0004.45,0003.83
2021-08-20 07:28:00,,0824.1,4.99,0.00,29.9,28.9,00.0,38.9,31.7,32.3,0001.3,0010.91,0004.48,0003.87
2021-08-20 07:29:00,,0824.1,5.00,0.00,29.9,28.9,00.0,38.9,31.7,32.4,0001.3,0010.82,0004.51,0003.90
2021-08-20 07:30:00,,0824.1,5.01,0.00,29.9,29.0,00.0,38.9,31.8,32.5,0001.2,0010.83,0004.56,0003.94
2021-08-20 07:31:00,,0824.1,5.00,0.00,29.9,29.0,00.0,39.0,31.8,32.5,0001.9,0010.32,0004.62,0004.01
2021-08-20 07:32:00,,0824.2,5.00,0.00,30.0,29.1,00.0,39.0,31.8,32.5,0001.6,0010.18,0004.67,0004.05
2021-08-20 07:33:00,,0824.2,5.00,0.00,30.0,29.1,00.0,39.0,31.9,32.6,0001.4,0009.69,0004.72,0004.10
2021-08-20 07:34:00,,0824.1,5.00,0.00,30.0,29.2,00.0,39.0,31.9,33.1,0001.3,0010.12,0004.77,0004.16
2021-08-20 07:35:00,,0824.1,4.99,0.00,30.1,29.2,00.0,39.0,31.9,33.4,0001.4,0010.84,0004.86,0004.23
2021-08-20 07:36:00,,0824.1,5.00,0.00,30.1,29.3,00.0,39.1,32.0,33.5,0001.5,0011.27,0004.94,0004.31
2021-08-20 07:37:00,,0824.1,5.01,0.00,30.1,29.3,00.0,39.1,32.0,33.7,0001.5,0010.59,0005.00,0004.40
2021-08-20 07:38:00,,0824.0,4.99,0.00,30.1,29.0,00.0,39.1,31.9,33.7,0001.4,0010.01,0005.09,0004.50
2021-08-20 07:39:00,,0823.9,5.01,0.00,30.0,27.3,00.0,39.1,31.4,33.7,0001.4,0009.97,0005.12,0004.59
2021-08-20 07:40:00,,0824.0,5.00,0.00,29.9,26.4,00.0,39.1,31.1,34.2,0001.3,0010.09,0005.19,0004.69
2021-08-20 07:41:00,,0823.9,5.00,0.00,29.8,26.5,00.0,39.0,31.1,34.3,0000.9,0010.76,0005.26,0004.77
2021-08-20 07:42:00,,0823.9,4.99,0.00,29.7,26.9,00.0,39.0,31.2,34.3,0000.5,0010.81,0005.30,0004.82
2021-08-20 07:43:00,,0823.9,4.99,0.00,29.7,27.3,00.0,39.0,31.3,34.6,0000.5,0010.87,0005.37,0004.91
2021-08-20 07:44:00,,0823.9,5.01,0.00,29.7,27.6,00.0,38.9,31.3,34.9,0000.8,0010.93,0005.46,0005.01
2021-08-20 07:45:00,,0823.8,5.01,0.00,29.7,27.9,00.0,38.9,31.4,35.3,0000.7,0010.65,0005.56,0005.11
2021-08-20 07:46:00,,0824.0,5.00,0.00,30.0,28.1,00.0,38.9,31.7,34.8,0000.5,0010.48,0005.64,0005.19
2021-08-20 07:47:00,,0824.0,4.99,0.00,30.2,28.3,00.0,38.9,31.7,34.3,0000.6,0010.35,0005.68,0005.24
2021-08-20 07:48:00,,0824.1,5.01,0.00,30.4,28.5,00.0,39.0,31.8,34.2,0000.6,0010.49,0005.76,0005.28
2021-08-20 07:49:00,,0824.1,4.99,0.00,30.4,28.6,00.0,39.0,31.8,34.2,0000.8,0010.77,0005.83,0005.32
2021-08-20 07:50:00,,0824.1,5.01,0.00,30.5,28.7,00.0,39.0,31.8,34.3,0000.7,0012.26,0005.93,0005.37
2021-08-20 07:51:00,,0824.1,4.99,0.00,30.5,28.8,00.0,39.1,31.8,34.2,0000.8,0012.64,0006.01,0005.43
2021-08-20 07:52:00,,0824.1,5.00,0.00,30.5,28.9,00.0,39.2,31.8,34.1,0001.0,0012.18,0006.07,0005.48
2021-08-20 07:53:00,,0824.1,5.00,0.00,30.6,28.9,00.0,39.2,31.9,34.2,0001.1,0012.20,0006.16,0005.55
2021-08-20 07:54:00,,0824.1,5.01,0.00,30.6,29.0,00.0,39.2,31.9,34.1,0000.9,0012.33,0006.25,0005.62
2021-08-20 07:55:00,,0824.1,4.99,0.00,30.6,29.1,00.0,39.3,32.0,34.1,0000.6,0012.39,0006.31,0005.68
2021-08-20 07:56:00,,0824.1,5.00,0.00,30.6,29.1,00.0,39.3,32.0,34.8,0000.5,0012.64,0006.44,0005.77
2021-08-20 07:57:00,,0824.1,5.00,0.00,30.7,29.2,00.0,39.4,32.0,35.2,0000.8,0012.65,0006.55,0005.87
2021-08-20 07:58:00,,0824.1,5.01,0.00,30.9,29.2,00.0,39.4,32.2,34.8,0000.8,0013.03,0006.68,0005.98
2021-08-20 07:59:00,,0824.1,5.00,0.00,31.0,29.3,00.0,39.4,32.2,34.4,0000.6,0013.21,0006.80,0006.11
